Regional Weather Roundup
Issued by NWS

Home | Current Version | Previous Version | Graphics & Text | Print | Product List | Glossary On
Versions: 1 2 3 4 5 6 7 8 9 10 11 12 13 14 15 16 17 18 19 20 21 22 23 24 25 26 27 28 29 30 31 32 33 34 35 36 37 38 39 40 41 42 43 44 45 46 47 48 49 50
000
ASUS43 KOAX 231402
RWRNE

WEATHER ROUNDUP FOR NEBRASKA
NATIONAL WEATHER SERVICE OMAHA NE
900 AM CDT SAT AUG 23 2014

NOTES: SATELLITE DATA IS BEING USED TO AUGMENT CLOUD COVER ABOVE
       12000 FEET.
       "FAIR" INDICATES FEW OR NO CLOUDS BELOW 12,000 FEET WITH NO
       SIGNIFICANT WEATHER AND/OR OBSTRUCTIONS TO VISIBILITY.

  * THESE STATIONS DO NOT REPORT WEATHER SUCH AS RAIN...SNOW OR FOG.

NEZ001>004-019>022-054>056-231500-
NEBRASKA PANHANDLE

CITY           SKY/WX    TMP DP  RH WIND       PRES   REMARKS
SCOTTSBLUFF    MOSUNNY   64  61  90 E3        29.89F
ALLIANCE       CLOUDY    62  60  93 CALM      29.91S
CHADRON        CLOUDY    65  61  87 SW6       29.88F
KIMBALL        CLOUDY    61  59  94 W5        29.94S
SIDNEY         PTSUNNY   63  61  93 W9        29.93S
$$

NEZ057>060-069>072-079>082-231500-
SOUTHWEST NEBRASKA

CITY           SKY/WX    TMP DP  RH WIND       PRES   REMARKS
NORTH PLATTE   CLOUDY    67  65  93 E10       29.88S
IMPERIAL       PTSUNNY   67  65  93 E6        29.87F
LEXINGTON      CLOUDY    69  67  95 E8        29.86F FOG
MCCOOK         CLOUDY    68  66  93 E7        29.86S FOG
OGALLALA       CLOUDY    64  64  98 CALM      29.88F FOG
$$

NEZ005>010-023>029-035>040-094-231500-
NORTH CENTRAL NEBRASKA

CITY           SKY/WX    TMP DP  RH WIND       PRES   REMARKS
VALENTINE      CLOUDY    67  66  97 SE6       29.86F
AINSWORTH      CLOUDY    66  66  99 SE7       29.89S
BROKEN BOW     PTSUNNY   69  67  93 E6        29.89F
O`NEILL        CLOUDY    68  68  98 E5        29.91S
ORD            CLOUDY    68  65  90 NE3       29.88S
THEDFORD       CLOUDY    68  67  95 SE6       29.89S
$$

NEZ041-046>049-061>064-073>077-083>087-231500-
SOUTH CENTRAL NEBRASKA

CITY           SKY/WX    TMP DP  RH WIND       PRES   REMARKS
GRAND ISLAND   PTSUNNY   70  67  90 E13       29.88R
AURORA         PTSUNNY   71  71 100 SE13      29.88R
HASTINGS       CLOUDY    70  66  87 SE15      29.87S
HEBRON         CLOUDY    72  67  85 SE8G16    29.88R
HOLDREGE       CLOUDY    69  67  92 SE12      29.86F
KEARNEY *      CLOUDY    70  66  88 E12       29.88S
YORK           MOSUNNY   72 N/A N/A SE12      29.89R
$$

NEZ011>018-030>034-042>045-231500-
NORTHEAST NEBRASKA

CITY           SKY/WX    TMP DP  RH WIND       PRES   REMARKS
NORFOLK        CLOUDY    69  66  90 E8        29.90R
ALBION         CLOUDY    67  65  93 SE8       29.91R
BLAIR          CLOUDY    72  69  88 E7        29.88S
FREMONT        CLOUDY    72  69  90 E7        29.88S
TEKAMAH        CLOUDY    72  69  90 NE6       29.88S
WAYNE          CLOUDY    70  68  93 E6        29.92R
$$

NEZ050>053-065>068-078-088>093-231500-
SOUTHEAST NEBRASKA

CITY           SKY/WX    TMP DP  RH WIND       PRES   REMARKS
LINCOLN        PTSUNNY   73  68  84 SE12      29.89R
OMAHA EPPLEY   CLOUDY    74  69  85 SE8       29.88S
BEATRICE       MOSUNNY   74  70  87 E9        29.88S
FALLS CITY     MOSUNNY   75  71  87 SE10      29.89F
NEBRASKA CITY  PTSUNNY   72  72 100 E9        29.89S
PLATTSMOUTH    CLOUDY    74  71  90 E9        29.89R
$$

NEZ044-045-051>053-067-231500-
OMAHA AREA

CITY           SKY/WX    TMP DP  RH WIND       PRES   REMARKS
OMAHA EPPLEY   CLOUDY    74  69  85 SE8       29.88S
BLAIR          CLOUDY    72  69  88 E7        29.88S
FREMONT        CLOUDY    72  69  90 E7        29.88S
MILLARD        CLOUDY    73  69  89 SE6       29.87R
OFFUTT AFB     CLOUDY    74  74 100 SE10      29.88R
PLATTSMOUTH    CLOUDY    74  71  90 E9        29.89R
WAHOO          FAIR      71  68  90 SE6       29.88S
$$


USA.gov is the U.S. government's official web portal to all federal, state and local government web resources and services.